Location: Cointrin
(46.2167°N, 6.1167°E)
Time: 06:30:37
(UTC+00:00)

ISS - Pass Details

Date: 25 January 2026
Orbit: 413 x 429 km, 51.6° (Epoch: 11 February)

Event Time Altitude Azimuth Distance (km) Brightness Sun altitude
Rises 17:43:03 0° 296° (WNW) 2,365 0.9 -12.7°
Reaches altitude 10° 17:45:11 10° 302° (WNW) 1,502 -0.3 -13.0°
Maximum altitude 17:48:29 50° 19° (NNE) 545 -3.4 -13.6°
Enters shadow 17:50:00 27° 82° (E) 846 -2.8 -13.8°
